Weather History for McMinnville, OR

Change the Weather History Date:

Monday, July 22, 2013

  Actual Average Record
Temperature  
Mean Temperature 70 °F 67 °F  
Max Temperature 89 °F 83 °F 102 °F (1928)
Min Temperature 50 °F 52 °F 36 °F (1960)
Degree Days  
Heating Degree Days 0 1  
Month to date heating degree days 10 36  
Since 1 July heating degree days 10 36  
Cooling Degree Days 5 3  
Month to date cooling degree days 88 50  
Year to date cooling degree days 141 72  
Growing Degree Days 20 (Base 50)    
Moisture  
Dew Point 54 °F    
Average Humidity 65    
Maximum Humidity 100    
Minimum Humidity 29    
Precipitation  
Precipitation 0.00 in 0.01 in 0.31 in (1898)
Month to date precipitation T 0.42  
Year to date precipitation 10.40 21.67  
Snow  
Snow 0.00 in - - ()
Month to date snowfall 0.0  
Since 1 June snowfall 0.0  
Snow Depth 0.00 in    
Sea Level Pressure  
Sea Level Pressure 29.99 in    
Wind  
Wind Speed 4 mph (North)    
Max Wind Speed 10 mph    
Max Gust Speed 14 mph    
Visibility 10 miles    
Events      
T = Trace of Precipitation, MM = Missing Value Source: NWS Daily Summary

Daily Weather History Graph

Daily Weather History Graph

Search for Another Location

Airport:

Trip Planner

Search our weather history database for the weather conditions in past years. The results will help you decide how hot, cold, wet, or windy it might be!

Date:

Astronomy

Jul. 22, 2013 Rise Set
Actual Time 5:46 AM PDT 8:50 PM PDT
Civil Twilight 5:11 AM PDT 9:25 PM PDT
Nautical Twilight 4:26 AM PDT 10:10 PM PDT
Astronomical Twilight 3:31 AM PDT 11:04 PM PDT
Moon 8:35 PM PDT (7/22) 5:53 AM PDT (7/22)
Length of Visible Light 16h 14m
Length of Day
15h 03m
Full, 100% of the Moon is Illuminated
Jul 22
Full
Jul 29
Last Quarter
Aug 6
New
Aug 14
First Quarter
Aug 20
Full

Hourly Weather History & Observations

Time (PDT) Temp. Heat Index Dew Point Humidity Pressure Visibility Wind Dir Wind Speed Gust Speed Precip Events Conditions
12:53 AM 61.0 °F - 55.9 °F 83% 29.95 in 10.0 mi Calm Calm - N/A   Clear
1:53 AM 57.0 °F - 54.0 °F 89% 29.96 in 10.0 mi Calm Calm - N/A   Clear
2:53 AM 54.0 °F - 53.1 °F 97% 29.97 in 10.0 mi West 3.5 mph - N/A   Clear
3:53 AM 55.0 °F - 53.1 °F 93% 29.99 in 10.0 mi West 4.6 mph - N/A   Clear
4:53 AM 53.1 °F - 52.0 °F 96% 30.00 in 10.0 mi West 4.6 mph - N/A   Clear
5:53 AM 53.1 °F - 52.0 °F 96% 30.01 in 10.0 mi NW 3.5 mph - N/A   Clear
6:53 AM 54.0 °F - 53.1 °F 97% 30.03 in 10.0 mi Calm Calm - N/A   Clear
7:53 AM 57.9 °F - 54.0 °F 87% 30.04 in 10.0 mi North 5.8 mph - N/A   Clear
8:53 AM 63.0 °F - 54.0 °F 72% 30.05 in 10.0 mi Variable 5.8 mph - N/A   Clear
9:53 AM 66.0 °F - 55.0 °F 68% 30.05 in 10.0 mi ENE 4.6 mph - N/A   Clear
10:53 AM 68.0 °F - 55.0 °F 63% 30.05 in 10.0 mi Variable 4.6 mph - N/A   Clear
11:53 AM 72.0 °F - 54.0 °F 53% 30.04 in 10.0 mi Variable 3.5 mph - N/A   Clear
12:53 PM 75.9 °F - 54.0 °F 46% 30.02 in 10.0 mi Calm Calm - N/A   Clear
1:53 PM 79.0 °F - 53.1 °F 40% 30.01 in 10.0 mi Variable 5.8 mph - N/A   Clear
2:53 PM 82.0 °F - 52.0 °F 35% 30.00 in 10.0 mi Calm Calm - N/A   Clear
3:53 PM 84.9 °F - 52.0 °F 32% 29.98 in 10.0 mi Variable 4.6 mph - N/A   Clear
4:53 PM 87.1 °F - 52.0 °F 30% 29.96 in 10.0 mi Variable 3.5 mph - N/A   Clear
5:53 PM 88.0 °F - 52.0 °F 29% 29.95 in 10.0 mi NNE 8.1 mph - N/A   Clear
6:53 PM 86.0 °F 84.2 °F 54.0 °F 33% 29.94 in 10.0 mi NE 8.1 mph - N/A   Clear
7:53 PM 82.9 °F - 51.1 °F 33% 29.94 in 10.0 mi North 8.1 mph - N/A   Clear
8:53 PM 77.0 °F - 54.0 °F 45% 29.96 in 10.0 mi Calm Calm - N/A   Clear
9:53 PM 73.9 °F - 53.1 °F 48% 29.98 in 10.0 mi Calm Calm - N/A   Clear
10:53 PM 70.0 °F - 55.0 °F 59% 29.99 in 10.0 mi Calm Calm - N/A   Clear
11:53 PM 68.0 °F - 57.0 °F 68% 29.99 in 10.0 mi NNE 4.6 mph - N/A   Clear